Location: Newark
(43.0000°N, 1.6781°W)
Time: 07:59:34
(UTC+00:00)

Courier 1B Rocket - Pass Details

Date: 23 April 2021
Orbit: 920 x 1202 km, 28.2° (Epoch: 09 May)

Event Time Altitude Azimuth Distance (km) Brightness Sun altitude
Rises 19:34:17 0° 237° (WSW) 3,627 8.5 -6.9°
Reaches altitude 10° 19:37:27 10° 223° (SW) 2,720 7.6 -7.4°
Maximum altitude 19:42:21 22° 174° (S) 2,039 6.4 -8.2°
Enters shadow 19:47:25 10° 127° (SE) 2,847 6.8 -9.0°
